Showing default

COSMOS 2496, 39761

Orbit data source: Space-Track

COSMOS 2496, 39761 is a payload satellite owned by VVKO (CIS) in LEO that was launched on Fri, 23 May 2014 UTC via an ROKOT launch vehicle from the Plesetsk Missile And Space Complex (PKMTR). Payload-class satellites include a variety of spacecraft equipped with specific instruments for various scientific and technological missions. These include communications satellites like Starlink; space stations such as the ISS; scientific satellites like the Hubble; Earth observation satellites from companies like Planet Labs, Umbra, and HawkEye 360; GPS; miniature CubeSats for education and research; and military/defense satellites.

Loading next visibility...
Identifier
39761, 2014-028A
Orbit
LEO
Country
Flag of CISCIS
Related business
Manufacturer
Resehetnev ISS
Mission
Operational Defense Communications
Bus & Motor
STRELA-3M, Unknown motor
Mass
280 kg wet, 280 kg dry
Launch date (UTC)
2014-05-23 (12 years ago)
Launch vehicle
ROKOT
Launch site
Plesetsk Missile And Space Complex (PKMTR)
Object type
Payload
Rocket body
Debris
Shape & HBR
Cyl + 1 Ant, 3.5 m
Radar Cross Section
1.583 m², Large (>1 m²)

Expand to show TLE details & history
Last TLE update: 11 hours ago

TLE from 11 hours ago
0 COSMOS 2496
1 39761U 14028A   25351.66135375 -.00000086  00000-0 -69102-3 0  9990
2 39761  82.4458 222.4012 0020144 113.4011 246.9190 12.42870327524967
Epoch: 2025-12-17T15:52Z
TLE epoch observation values (Epoch: 2025-12-17T15:52:20.963Z)
Latitude
0.00004°
Longitude
-102.21415°
Altitude
1,503.402 km
Speed
7.11 km/s
True Right ascension
14h 49m 36s
True Declination
0° 00' 00"
Sunlit
Object was in daylight at epoch
Visualization orbit readout
Latitude
Unknown
Longitude
Unknown
Altitude
Unknown
Speed
Unknown
Apparent Right ascension
Unknown
Apparent Declination
Unknown
Sunlit
N/A
Visualization observer readout
Local Sidereal Time
01:22:12
Azimuth
Unknown
Elevation
Unknown
Doppler factor
Unknown
Orbital elements
Apogee altitude
1,507.666 km
Perigee altitude
1,475.959 km
Semi-major axis
7,869.949 km
Eccentricity
0.00201
Inclination
82.4458°
RAAN
222.4012°
Arg. of periapsis
113.4011°
True anomaly
246.70685°
Mean anomaly
246.919°
Eccentric anomaly
246.81291°
Mean motion
3.10875 °/min
Orbital period
115.8 mins
BSTAR
-0.00069102
Loading maneuver chart data...
Computing Atmospheric mass density...
Loading historical data...
Loading historical data...
Loading historical data...
Loading historical data...
Loading historical data...
Loading historical data...
Loading historical data...

Documentation

Showing up to 5 results
|